Weather History for Fort Benning, GA

Change the Weather History Date:

Wednesday, December 19, 2012

  Actual Average Record
Temperature  
Mean Temperature 52 °F -  
Max Temperature 73 °F 55 °F 75 °F (2006)
Min Temperature 30 °F 32 °F 17 °F (1996)
Degree Days  
Heating Degree Days 14    
Growing Degree Days 2 (Base 50)    
Moisture  
Dew Point 34 °F    
Average Humidity 94    
Maximum Humidity 100    
Minimum Humidity 31    
Precipitation  
Precipitation 0.00 in - - ()
Sea Level Pressure  
Sea Level Pressure 30.07 in    
Wind  
Wind Speed 1 mph (West)    
Max Wind Speed 7 mph    
Max Gust Speed -    
Visibility 4 miles    
Events Fog    
Averages and records for this station are not official NWS values.
T = Trace of Precipitation, MM = Missing Value Source: NWS Daily Summary

Daily Weather History Graph

Daily Weather History Graph

Search for Another Location

Airport:

Trip Planner

Search our weather history database for the weather conditions in past years. The results will help you decide how hot, cold, wet, or windy it might be!

Date:

Astronomy

Dec. 19, 2012 Rise Set
Actual Time 7:36 AM EST 5:38 PM EST
Civil Twilight 7:09 AM EST 6:05 PM EST
Nautical Twilight 6:38 AM EST 6:36 PM EST
Astronomical Twilight 6:08 AM EST 7:06 PM EST
Moon 12:07 PM EST No Moon Set
Length of Visible Light 10h 56m
Length of Day
10h 01m
Waxing Crescent, 45% of the Moon is Illuminated
Dec 19
Waxing Crescent
Dec 20
First Quarter
Dec 28
Full
Jan 4
Last Quarter
Jan 11
New

Hourly Weather History & Observations

Time (EST) Temp. Windchill Dew Point Humidity Pressure Visibility Wind Dir Wind Speed Gust Speed Precip Events Conditions
12:55 AM 34.9 °F - 34.7 °F 99% 30.06 in 5.0 mi Calm Calm - N/A   Clear
1:01 AM 33.8 °F - 33.8 °F 100% 30.06 in 3.0 mi Calm Calm - N/A   Clear
1:03 AM 33.8 °F - 33.8 °F 100% 30.06 in 2.5 mi Calm Calm - N/A   Clear
1:09 AM 35.6 °F - 33.8 °F 93% 30.06 in 1.8 mi Calm Calm - N/A   Clear
1:12 AM 33.8 °F - 33.8 °F 100% 30.06 in 2.0 mi Calm Calm - N/A   Clear
1:13 AM 33.8 °F - 33.8 °F 100% 30.06 in 2.0 mi Calm Calm - N/A   Clear
1:17 AM 33.8 °F - 33.8 °F 100% 30.06 in 3.0 mi Calm Calm - N/A   Clear
1:54 AM 32.0 °F 28.7 °F 32.0 °F 100% 30.05 in 8.0 mi SE 3.5 mph - N/A   Clear
1:55 AM 32.7 °F 29.6 °F 32.4 °F 99% 30.05 in 8.0 mi SE 3.5 mph - N/A   Clear
2:55 AM 34.2 °F - 33.8 °F 99% 30.04 in 5.0 mi Calm Calm - N/A   Clear
3:26 AM 32.0 °F - 32.0 °F 100% 30.05 in 2.5 mi Calm Calm - N/A   Clear
3:30 AM 32.0 °F - 32.0 °F 100% 30.05 in 1.5 mi Calm Calm - N/A   Clear
3:32 AM 30.2 °F - 30.2 °F 100% 30.05 in 1.2 mi Calm Calm - N/A   Clear
3:35 AM 30.2 °F 26.7 °F 30.2 °F 100% 30.05 in 1.0 mi NW 3.5 mph - N/A   Clear
3:37 AM 30.2 °F 26.7 °F 30.2 °F 100% 30.05 in 0.8 mi WNW 3.5 mph - N/A   Clear
3:38 AM 30.2 °F 26.7 °F 30.2 °F 100% 30.05 in 0.8 mi WNW 3.5 mph - N/A   Clear
3:39 AM 30.2 °F 26.7 °F 30.2 °F 100% 30.05 in 0.8 mi WNW 3.5 mph - N/A   Clear
3:40 AM 30.2 °F 26.7 °F 30.2 °F 100% 30.05 in 1.0 mi WNW 3.5 mph - N/A   Clear
3:42 AM 30.2 °F 26.7 °F 30.2 °F 100% 30.05 in 1.2 mi WNW 3.5 mph - N/A   Clear
3:44 AM 30.2 °F 26.7 °F 30.2 °F 100% 30.05 in 1.5 mi WNW 3.5 mph - N/A   Clear
3:45 AM 30.2 °F 26.7 °F 30.2 °F 100% 30.05 in 1.8 mi WNW 3.5 mph - N/A   Clear
3:46 AM 30.2 °F 25.4 °F 30.2 °F 100% 30.05 in 2.0 mi WNW 4.6 mph - N/A   Clear
3:47 AM 30.2 °F 25.4 °F 30.2 °F 100% 30.05 in 3.0 mi WNW 4.6 mph - N/A   Clear
3:55 AM 32.7 °F 29.6 °F 32.5 °F 99% 30.05 in 9.0 mi West 3.5 mph - N/A   Clear
4:16 AM 33.8 °F - 33.8 °F 100% 30.06 in 5.0 mi Calm Calm - N/A   Clear
4:55 AM 33.1 °F - 32.5 °F 98% 30.06 in 4.0 mi Calm Calm - N/A   Clear
4:58 AM 33.8 °F - 32.0 °F 93% 30.06 in 2.0 mi Calm Calm - N/A   Clear
4:59 AM 33.8 °F - 32.0 °F 93% 30.06 in 1.8 mi Calm Calm - N/A   Clear
5:00 AM 33.8 °F - 32.0 °F 93% 30.06 in 1.5 mi Calm Calm - N/A   Clear
5:01 AM 33.8 °F - 32.0 °F 93% 30.06 in 1.0 mi Calm Calm - N/A   Clear
5:02 AM 32.0 °F - 32.0 °F 100% 30.06 in 1.0 mi Calm Calm - N/A   Clear
5:03 AM 32.0 °F - 32.0 °F 100% 30.06 in 0.8 mi Calm Calm - N/A   Clear
5:04 AM 32.0 °F - 32.0 °F 100% 30.06 in 0.8 mi Calm Calm - N/A   Clear
5:06 AM 32.0 °F - 32.0 °F 100% 30.06 in 0.5 mi Calm Calm - N/A Fog Fog
5:07 AM 32.0 °F - 32.0 °F 100% 30.06 in 0.5 mi Calm Calm - N/A Fog Fog
5:09 AM 32.0 °F - 32.0 °F 100% 30.06 in 0.5 mi Calm Calm - N/A Fog Fog
5:12 AM 32.0 °F - 32.0 °F 100% 30.06 in 0.2 mi Calm Calm - N/A Fog Fog
5:17 AM 32.0 °F - 32.0 °F 100% 30.07 in 0.5 mi Calm Calm - N/A Fog Fog
5:21 AM 32.0 °F 28.7 °F 32.0 °F 100% 30.07 in 0.5 mi NW 3.5 mph - N/A Fog Light Freezing Fog
5:36 AM 30.2 °F 25.4 °F 30.2 °F 100% 30.07 in 0.5 mi NW 4.6 mph - N/A Fog Light Freezing Fog
5:41 AM 30.2 °F 26.7 °F 30.2 °F 100% 30.08 in 0.8 mi NW 3.5 mph - N/A   Clear
5:46 AM 30.2 °F 26.7 °F 30.2 °F 100% 30.08 in 0.5 mi WNW 3.5 mph - N/A Fog Light Freezing Fog
5:49 AM 30.2 °F 26.7 °F 30.2 °F 100% 30.08 in 0.8 mi WNW 3.5 mph - N/A   Clear
5:55 AM 31.5 °F - 31.1 °F 99% 30.08 in 1.0 mi Calm Calm - 0.00 in   Clear
5:57 AM 32.0 °F - 32.0 °F 100% 30.08 in 1.2 mi Calm Calm - N/A   Clear
5:59 AM 32.0 °F - 32.0 °F 100% 30.08 in 1.5 mi Calm Calm - N/A   Clear
6:01 AM 32.0 °F - 32.0 °F 100% 30.08 in 1.5 mi Calm Calm - N/A   Clear
6:03 AM 32.0 °F - 32.0 °F 100% 30.08 in 1.8 mi Calm Calm - N/A   Clear
6:05 AM 32.0 °F - 32.0 °F 100% 30.08 in 2.0 mi Calm Calm - N/A   Clear
6:10 AM 32.0 °F - 32.0 °F 100% 30.08 in 2.5 mi Calm Calm - N/A   Clear
6:11 AM 32.0 °F - 32.0 °F 100% 30.08 in 2.5 mi Calm Calm - N/A   Clear
6:13 AM 32.0 °F - 32.0 °F 100% 30.08 in 3.0 mi Calm Calm - N/A   Clear
6:27 AM 32.0 °F - 32.0 °F 100% 30.09 in 2.5 mi Calm Calm - N/A   Clear
6:36 AM 32.0 °F - 32.0 °F 100% 30.09 in 3.0 mi Calm Calm - N/A   Clear
6:55 AM 32.2 °F - 32.0 °F 99% 30.10 in 2.5 mi Calm Calm - N/A   Clear
6:59 AM 32.0 °F - 32.0 °F 100% 30.10 in 1.8 mi Calm Calm - N/A   Clear
7:00 AM 32.0 °F - 32.0 °F 100% 30.10 in 1.5 mi Calm Calm - N/A   Clear
7:05 AM 32.0 °F - 32.0 °F 100% 30.10 in 1.2 mi Calm Calm - N/A   Clear
7:06 AM 32.0 °F - 32.0 °F 100% 30.10 in 1.0 mi Calm Calm - N/A   Clear
7:08 AM 32.0 °F - 32.0 °F 100% 30.10 in 0.8 mi Calm Calm - N/A   Clear
7:13 AM 32.0 °F - 32.0 °F 100% 30.10 in 0.5 mi Calm Calm - N/A Fog Light Freezing Fog
7:14 AM 32.0 °F - 32.0 °F 100% 30.10 in 0.5 mi Calm Calm - N/A Fog Light Freezing Fog
7:17 AM 32.0 °F - 32.0 °F 100% 30.11 in 0.5 mi Calm Calm - N/A Fog Light Freezing Fog
7:18 AM 32.0 °F - 32.0 °F 100% 30.11 in 0.8 mi Calm Calm - N/A   Clear
7:19 AM 32.0 °F - 32.0 °F 100% 30.11 in 0.8 mi Calm Calm - N/A   Clear
7:20 AM 32.0 °F - 32.0 °F 100% 30.11 in 0.8 mi Calm Calm - N/A   Clear
7:22 AM 32.0 °F - 32.0 °F 100% 30.11 in 0.2 mi Calm Calm - N/A Fog Light Freezing Fog
7:55 AM 32.0 °F - 32.0 °F 100% 30.13 in 0.5 mi Calm Calm - N/A Fog Light Freezing Fog
8:22 AM 32.0 °F 28.7 °F 32.0 °F 100% 30.11 in 2.0 mi SSE 3.5 mph - N/A   Clear
8:44 AM 33.8 °F - 33.8 °F 100% 30.12 in 2.8 mi SE 2.3 mph - N/A   Clear
8:52 AM 35.6 °F - 35.6 °F 100% 30.12 in 6.0 mi Calm Calm - N/A   Clear
8:55 AM 35.6 °F - 35.6 °F 100% 30.15 in 10.0 mi Calm Calm - N/A   Clear
9:55 AM 42.8 °F - 42.6 °F 99% 30.14 in 10.0 mi Calm Calm - 0.00 in   Clear
10:55 AM 54.1 °F - 42.4 °F 65% 30.15 in 10.0 mi Calm Calm - N/A   Clear
11:55 AM 61.7 °F - 43.9 °F 52% 30.13 in 10.0 mi Calm Calm - N/A   Clear
12:55 PM 66.2 °F - 44.1 °F 45% 30.09 in 7.0 mi Variable 3.5 mph - N/A   Clear
1:55 PM 70.0 °F - 39.4 °F 33% 30.06 in 8.0 mi SSE 6.9 mph - N/A   Clear
2:55 PM 71.4 °F - 39.0 °F 31% 30.04 in 5.0 mi Variable 3.5 mph - N/A   Haze
3:55 PM 73.0 °F - 40.6 °F 31% 30.04 in 10.0 mi SSE 3.5 mph - N/A   Clear
4:55 PM 70.3 °F - 39.6 °F 33% 30.04 in 10.0 mi South 5.8 mph - N/A   Clear
5:55 PM 57.4 °F - 42.8 °F 58% 30.05 in 10.0 mi Calm Calm - N/A   Clear
6:55 PM 50.4 °F - 42.6 °F 75% 30.06 in 10.0 mi Calm Calm - N/A   Clear
7:55 PM 47.7 °F - 41.5 °F 79% 30.06 in 10.0 mi Calm Calm - N/A   Clear
8:55 PM 44.4 °F - 41.7 °F 90% 30.07 in 10.0 mi Calm Calm - N/A   Clear
9:05 PM 44.6 °F - 41.0 °F 87% 30.07 in 9.0 mi Calm Calm - N/A   Clear
9:06 PM 44.6 °F - 41.0 °F 87% 30.07 in 9.0 mi Calm Calm - N/A   Clear
9:55 PM 40.3 °F - 39.2 °F 96% 30.07 in 10.0 mi Calm Calm - N/A   Clear
10:29 PM 39.2 °F - 39.2 °F 100% 30.06 in 7.0 mi Calm Calm - N/A   Clear
10:30 PM 39.2 °F - 39.2 °F 100% 30.06 in 7.0 mi Calm Calm - N/A   Clear
10:55 PM 40.5 °F - 40.1 °F 99% 30.07 in 7.0 mi Calm Calm - N/A   Clear
10:56 PM 41.0 °F - 41.0 °F 100% 30.07 in 7.0 mi Calm Calm - N/A   Clear
10:59 PM 41.0 °F - 41.0 °F 100% 30.07 in 7.0 mi Calm Calm - N/A   Clear
11:25 PM 41.0 °F - 41.0 °F 100% 30.07 in 7.0 mi Calm Calm - N/A   Clear
11:45 PM 41.0 °F - 39.2 °F 93% 30.07 in 2.5 mi Calm Calm - N/A   Clear
11:48 PM 39.2 °F - 39.2 °F 100% 30.07 in 2.5 mi Calm Calm - N/A   Clear
11:52 PM 39.2 °F - 39.2 °F 100% 30.06 in 2.5 mi Calm Calm - N/A   Clear
11:54 PM 39.2 °F - 39.2 °F 100% 30.06 in 3.0 mi Calm Calm - N/A   Clear
11:55 PM 39.4 °F - 39.0 °F 99% 30.06 in 4.0 mi Calm Calm - N/A   Clear